一网星座-0086星 (ONEWEB-0086 )

导读

ONEWEB-0086是英国OneWeb星座的成员,2020年3月21日发射,属于低轨通信卫星。OneWeb星座旨在建设覆盖全球的卫星互联网,单星重约147.5kg,运行在近地轨道,可提供高速低延迟通信服务,覆盖包括偏远地区在内的全球区域,支持应急通信、企业和政府机构联网等多种应用场景。此次发射是OneWeb一期组网的一部分,推动该星座全球网络部署进程,英国政府后续注资助力其完成破产重组与星座建设。

基本信息
目录编号:
45456
目录名称:
ONEWEB-0086
国际标识:
2020-020AJ
轨道中心:
EARTH
卫星名称:
一网星座-0086星
卫星全名:
一网星座-0086星 (ONEWEB-0086 )
卫星状态:
在轨 (已飞行2274 天)
发射日期:
2020-03-21 UTC
国别 :
英国 (GB)
星等 :
--
轨道信息
数据来源 国际轨道数据
星历时间: 2026-06-12T10:47:07+0800
17小时前
查看轨道信息
半长轴: 7595.819km
偏心率: 0.0001089
轨道倾角: 87.890°
近地点辐角 72.680°
升交点赤经 22.071°
平近点角 287.445°
近地点: 1216.854km
远地点: 1218.51km
周期: 109.805分钟
每日圈数: 13.114173
详细信息
平衡模式:
三轴稳定
覆盖范围:
全球
运营商:
一网卫星公司
运营商所在国:
英国
制造商(研发单位):
一网卫星公司
制造商所在国:
英国
使用方式:
暂无
卫星简介
OneWeb卫星网络由648颗重约125公斤的微型卫星组成,运行在1200公里的轨道上。 每颗卫星都能够提供至少每秒8千兆位的吞吐量,以使用其高吞吐量的Ku频段有效载荷为家庭和移动平台提供互联网接入。该卫星仍在工作。
2D轨道图
3D轨道图
轨道高度分析图
轨道倾角分析图
轨道综合分析图
查看轨道综合分析图